This is the latest recevied weather packets stored in our database for station/object LA5PPA-1. If no packets are shown the sender has not sent any weather packets the latest 10 day(s).
| Time | Temp. | Humidity | Pressure | Rain* | Wind** | Luminosity | Snow |
|---|---|---|---|---|---|---|---|
| 1778180211 | 5° C | 36% | 1021.2 hPa | 0 mm | - | - | - |
| 1778179911 | 5° C | 35% | 1021.2 hPa | 0 mm | - | - | - |
| 1778179611 | 5.56° C | 34% | 1021.2 hPa | 0 mm | - | - | - |
| 1778179311 | 5.56° C | 33% | 1021.2 hPa | 0 mm | - | - | - |
| 1778179011 | 6.11° C | 32% | 1021.2 hPa | 0 mm | - | - | - |
| 1778178711 | 6.67° C | 32% | 1021.1 hPa | 0 mm | - | - | - |
| 1778178411 | 6.67° C | 31% | 1021.1 hPa | 0 mm | - | - | - |
| 1778178111 | 6.67° C | 31% | 1021.1 hPa | 0 mm | - | - | - |
| 1778177811 | 6.67° C | 31% | 1021.1 hPa | 0 mm | - | - | - |
| 1778177511 | 6.11° C | 30% | 1021.1 hPa | 0 mm | - | - | - |
| 1778177211 | 6.11° C | 30% | 1021.1 hPa | 0 mm | - | - | - |
| 1778176911 | 6.67° C | 30% | 1021.1 hPa | 0 mm | - | - | - |
| 1778176611 | 6.67° C | 30% | 1021 hPa | 0 mm | - | - | - |
| 1778176311 | 6.67° C | 30% | 1021.2 hPa | 0 mm | - | - | - |
| 1778176011 | 6.67° C | 29% | 1021.2 hPa | 0 mm | - | - | - |
| 1778175711 | 6.67° C | 29% | 1021.2 hPa | 0 mm | - | - | - |
| 1778175411 | 6.67° C | 29% | 1021.2 hPa | 0 mm | - | - | - |
| 1778175111 | 6.67° C | 28% | 1021.2 hPa | 0 mm | - | - | - |
| 1778174811 | 7.22° C | 29% | 1021.2 hPa | 0 mm | - | - | - |
| 1778174511 | 7.22° C | 28% | 1021.2 hPa | 0 mm | - | - | - |
| 1778174211 | 7.22° C | 28% | 1021.1 hPa | 0 mm | - | - | - |
| 1778173911 | 7.22° C | 27% | 1021.2 hPa | 0 mm | - | - | - |
| 1778173611 | 7.22° C | 28% | 1021.3 hPa | 0 mm | - | - | - |
| 1778173311 | 7.78° C | 28% | 1021.1 hPa | 0 mm | - | - | - |
| 1778173011 | 7.78° C | 27% | 1021.2 hPa | 0 mm | - | - | - |
* Rain latest hour (hover to see other rain measurements)
** Current wind speed in m/s (hover to see current wind gust speed)